Regional Weather Roundup
Issued by NWS

Home | Current Version | Previous Version | Graphics & Text | Print | Product List | Glossary On
Versions: 1 2 3 4 5 6 7 8 9 10 11 12 13 14 15 16 17 18 19 20 21 22 23 24 25 26 27 28 29 30 31 32 33 34 35 36 37 38 39 40 41 42 43 44 45 46 47 48 49 50
000
ASUS43 KMKX 040721
RWRWI

WISCONSIN REGIONAL WEATHER ROUNDUP
NATIONAL WEATHER SERVICE MILWAUKEE/SULLIVAN WI
200 AM CDT TUE AUG 04 2015

NOTE: "FAIR" INDICATES FEW OR NO CLOUDS BELOW 12,000 FEET WITH NO
SIGNIFICANT WEATHER AND/OR OBSTRUCTIONS TO VISIBILITY.

WIZ001-002-006>008-014>016-023>028-040800-
NORTHWEST WISCONSIN

CITY           SKY/WX    TMP DP  RH WIND       PRES   REMARKS
SUPERIOR ARPT  CLEAR     51  50  95 SW3       29.91S
ASHLAND        CLOUDY    58  54  86 SW6       29.89S
HAYWARD        CLEAR     52  50  93 CALM      29.93R
SIREN          CLEAR     53  50  91 CALM      29.93F
CUMBERLAND     CLEAR     55  50  82 NW6       29.94S
RICE LAKE      CLEAR     56  52  86 CALM      29.95S
CHETEK         CLEAR     60  55  82 NW7       29.93S
LADYSMITH      CLEAR     58  53  83 W6        29.94R
EAU CLAIRE     CLEAR     61  53  75 NW5       29.92R
MENOMONIE      CLEAR     61  53  73 NW6       29.93S
NEW RICHMOND   CLEAR     56  55  96 CALM      29.94F
OSCEOLA        CLEAR     55  55 100 CALM      29.96F
$$

WIZ003>005-009-010-017-018-040800-
NORTH CENTRAL WISCONSIN

CITY           SKY/WX    TMP DP  RH WIND       PRES   REMARKS
MANITOWISH WTR MOCLDY    52  52 100 CALM      29.89S FOG
ARBOR VITAE    CLEAR     57  55  92 NW3       29.90S
WOODRUFF       CLEAR     57  55  92 NW3       29.90S
RHINELANDER    PTCLDY    55  53  93 CALM      29.91S
EAGLE RIVER    MOCLDY    55  55  99 W5        29.88F
LAND O LAKES   CLOUDY    57  55  94 NW3       29.89S
PHILLIPS       MOCLDY    56  54  95 CALM      29.91R
TOMAHAWK       CLOUDY    58  55  88 CALM      29.91S
MEDFORD        MOCLDY    59  55  85 W5        29.92R
MERRILL        NOT AVBL
$$

WIZ029-030-035-036-043>047-040800-
CENTRAL WISCONSIN

CITY           SKY/WX    TMP DP  RH WIND       PRES   REMARKS
WAUSAU         CLOUDY    64  55  72 W8        29.88F
MOSINEE        CLOUDY    61  55  82 W5        29.91S
MARSHFIELD     MOCLDY    60  53  77 NW6       29.91S
STEVENS POINT  CLOUDY    62  53  71 CALM      29.90S
WAUPACA        MOCLDY    59  55  87 CALM      29.89S
WAUTOMA        MOCLDY    57  53  86 CALM      29.90F
WISC RAPIDS    CLOUDY    61  51  70 W5        29.90F
CAMP DOUGLAS   CLEAR     51  51 100 CALM      29.90F
$$

WIZ011>013-019>022-031-037>040-048>050-040800-
NORTHEAST WISCONSIN

CITY           SKY/WX    TMP DP  RH WIND       PRES   REMARKS
ANTIGO         CLOUDY    57  55  92 NW3       29.90F
SHAWANO        CLOUDY    58  55  91 N3        29.89S
OCONTO         MOCLDY    56  56 100 W3        29.86S
STURGEON BAY   CLOUDY    61  54  77 NW5       29.88F
GREEN BAY      MOCLDY    59  56  89 W5        29.88S
MANITOWOC      MOCLDY    62  56  80 MISG      29.88S
APPLETON       CLOUDY    59  52  77 W5        29.89S
CLINTONVILLE   PTCLDY    57  52  82 CALM      29.88S
OSHKOSH        PTCLDY    62  53  72 SW5       29.88F
$$

WIZ032>034-041-042-053>061-040800-
SOUTHWEST WISCONSIN

CITY           SKY/WX    TMP DP  RH WIND       PRES   REMARKS
LA CROSSE      CLEAR     62  56  80 S6        29.91S
SPARTA         CLEAR     51  49  93 CALM      29.92S
VIROQUA        CLEAR     58  53  84 SW5       29.94S
BOSCOBEL       CLEAR     55  53  93 CALM      29.93F
PRAIRIE DU CHI CLEAR     56  53  88 CALM      29.93F
PLATTEVILLE    CLEAR     62  55  77 CALM      29.94F
$$

WIZ056-057-062-063-064-067-068-040800-
SOUTH CENTRAL WISCONSIN

CITY           SKY/WX    TMP DP  RH WIND       PRES   REMARKS
REEDSBURG      CLEAR     55  54  95 CALM      29.92S
BARABOO/DELLS  CLEAR     56  51  85 S3        29.92S
LONE ROCK      CLEAR     55  52  89 CALM      29.93F
MINERAL POINT  CLEAR     63  54  72 W3        29.94F
MADISON        CLEAR     60  52  74 CALM      29.91F
MIDDLETON      CLEAR     55  51  88 CALM      29.93S
WATERTOWN      CLEAR     55  55 100 CALM      29.91S
MONROE         CLEAR     64  52  63 W7        29.93F
JANESVILLE     CLEAR     59  55  88 CALM      29.92S
$$

WIZ051-052-058>065-066-070>072-040800-
SOUTHEAST WISCONSIN

CITY           SKY/WX    TMP DP  RH WIND       PRES   REMARKS
MILWAUKEE      CLEAR     68  51  54 W3        29.90S
WAUKESHA       CLEAR     59  50  72 CALM      29.92F
MILWAUKEE/TIMM CLEAR     61  50  67 CALM      29.91S
RACINE         CLEAR     64  52  64 W6        29.92S
BURLINGTON     CLEAR     55  53  92 CALM      29.92S
KENOSHA        PTCLDY    58  54  86 W3        29.91S
FOND DU LAC    PTCLDY    60  54  80 SW6       29.90S
SHEBOYGAN      CLEAR     57  54  89 SW5       29.89S
WEST BEND      CLEAR     59  52  77 CALM      29.90F
JUNEAU         CLEAR     55  52  88 SW3       29.92S
$$

LSZ147-162-040800-
LAKE SUPERIOR

STATION/POSITION TIME  TEMP    WIND        PRES    WAVE
                       AIR SEA DIR/SP/G            HT/PER
                 (UTC) (F)     (DEG/KT/KT) (MB)    (FT/S)
W MID LAKE BUOY  0650   57 56  280/  8/ 10 1010.5S   1/ 4
DEVILS ISLAND    0700   58     230/ 11/ 14 1011.6F
PORT WING        0600   64     260/  8/ 13 1012.5
SAXON HARBOR     0640   61        CALM     1011.5S
$$

LMZ867-665-643>646-040800-
LAKE MICHIGAN

STATION/POSITION TIME  TEMP    WIND        PRES    WAVE
                       AIR SEA DIR/SP/G            HT/PER
                 (UTC) (F)     (DEG/KT/KT) (MB)    (FT/S)
CHAMBERS ISLAND  0600   62     280/  2/  4 1010.8S
S GREEN BAY BUOY 0700   64 71  270/  8/ 10 1012.7R
N MID LAKE BUOY  0650   65 68  270/ 14/ 16 1009.7F   1
NORTHPORT PIER   0600   63     300/  9/ 15 1010.8S
SISTER BAY       0618   65     340/ 11/ 14   N/A
ALGOMA LAKESHORE 0612             CALM       N/A
KEWAUNEE LAKESHO 0600   62     290/  3/  4 1010.7S
SHEBOYGAN LAKESH 0700   65     250/  8/  8 1012.1S
PORT WASHINGTON  0600   66     280/  4/  6 1012.9S
ATWATER BUOY     0700   67 65  260/  6/  8 1013.7F
MILWAUKEE LAKESH 0700   68     300/  5/  7   N/A
KENOSHA   LAKESH 0700   67     280/  9/ 12 1012.5S
$$

TC  - TEMPERATURE IN CELSIUS
VSB - VISIBILITY IN STATUTE MILES
WCI - WIND CHILL INDEX
HX  - HEAT INDEX



USA.gov is the U.S. government's official web portal to all federal, state and local government web resources and services.